TKJ6FP LTAC-LTCK

Flight info

Callsign TKJ6FP
Flight time 1h 5m
Altitude 33000
Route GOBIT UL614 EZS UT368 BAYIR
Aircraft A320/M-SDE3FGHIRWY/LB1

Departure

Time 2026-04-23 09:06
Airport Esenboğa International Airport (LTAC)

Arrival

Time 2026-04-23 10:11
Airport Muş Airport (LTCK)
Time Latitude Longitude Altitude Speed Heading
2026-04-23 08:53 40.11633 32.99179 3113 ft 0 kts 149°
2026-04-23 08:59 40.11640 32.99174 3113 ft 4 kts 148°
2026-04-23 08:59 40.11655 32.99161 3113 ft 4 kts 147°
2026-04-23 09:00 40.11674 32.99146 3113 ft 4 kts 134°
2026-04-23 09:00 40.11681 32.99120 3113 ft 4 kts 69°
2026-04-23 09:00 40.11669 32.99090 3113 ft 3 kts 57°
2026-04-23 09:00 40.11667 32.99086 3113 ft 0 kts 57°
2026-04-23 09:02 40.11683 32.99109 3113 ft 7 kts 37°
2026-04-23 09:02 40.11724 32.99122 3113 ft 5 kts 357°
2026-04-23 09:03 40.11770 32.99094 3113 ft 9 kts 322°
2026-04-23 09:03 40.11803 32.99014 3113 ft 11 kts 259°
2026-04-23 09:03 40.11738 32.98939 3113 ft 14 kts 215°
2026-04-23 09:03 40.11689 32.98834 3112 ft 15 kts 291°
2026-04-23 09:04 40.11753 32.98717 3113 ft 17 kts 307°
2026-04-23 09:04 40.11824 32.98593 3113 ft 16 kts 305°
2026-04-23 09:04 40.11900 32.98508 3113 ft 14 kts 354°
2026-04-23 09:04 40.11961 32.98539 3113 ft 0 kts 35°
2026-04-23 09:05 40.11962 32.98540 3113 ft 2 kts 35°
2026-04-23 09:05 40.12193 32.98764 3116 ft 85 kts 36°
2026-04-23 09:05 40.12871 32.99413 3124 ft 153 kts 37°
2026-04-23 09:05 40.13828 33.00343 3549 ft 181 kts 38°
2026-04-23 09:06 40.14868 33.01396 4405 ft 195 kts 38°
2026-04-23 09:06 40.15938 33.02536 5193 ft 197 kts 38°
2026-04-23 09:06 40.17012 33.03686 5935 ft 208 kts 37°
2026-04-23 09:06 40.18190 33.04935 6593 ft 226 kts 36°
2026-04-23 09:07 40.19485 33.06293 7223 ft 249 kts 36°
2026-04-23 09:07 40.20693 33.08013 7980 ft 265 kts 61°
2026-04-23 09:07 40.21047 33.10381 8646 ft 271 kts 98°
2026-04-23 09:07 40.20387 33.12681 9318 ft 273 kts 124°
2026-04-23 09:08 40.19275 33.14651 9980 ft 274 kts 135°
2026-04-23 09:08 40.17974 33.16538 10608 ft 277 kts 139°
2026-04-23 09:08 40.16673 33.18370 11217 ft 280 kts 138°
2026-04-23 09:08 40.15362 33.20283 11851 ft 285 kts 137°
2026-04-23 09:09 40.14062 33.22261 12501 ft 288 kts 136°
2026-04-23 09:09 40.12777 33.24296 13167 ft 291 kts 136°
2026-04-23 09:09 40.11501 33.26367 13822 ft 296 kts 136°
2026-04-23 09:09 40.10180 33.28526 14160 ft 315 kts 136°
2026-04-23 09:10 40.08762 33.30845 14341 ft 339 kts 135°
2026-04-23 09:10 40.05628 33.35990 14638 ft 382 kts 134°
2026-04-23 09:10 40.03966 33.38742 15123 ft 390 kts 135°
2026-04-23 09:11 40.02278 33.41547 15677 ft 395 kts 134°
2026-04-23 09:11 40.00605 33.44416 16236 ft 401 kts 132°
2026-04-23 09:11 39.99006 33.47389 16829 ft 406 kts 130°
2026-04-23 09:11 39.97411 33.50510 17438 ft 411 kts 130°
2026-04-23 09:12 39.95839 33.53652 18048 ft 415 kts 130°
2026-04-23 09:12 39.94251 33.56816 18592 ft 419 kts 130°
2026-04-23 09:12 39.92652 33.59961 19100 ft 423 kts 130°
2026-04-23 09:12 39.91005 33.63156 19611 ft 427 kts 131°
2026-04-23 09:13 39.89329 33.66369 20139 ft 431 kts 131°
2026-04-23 09:13 39.87628 33.69604 20640 ft 435 kts 131°
2026-04-23 09:13 39.85905 33.72871 21116 ft 440 kts 131°
2026-04-23 09:13 39.84169 33.76168 21585 ft 444 kts 131°
2026-04-23 09:14 39.82421 33.79497 22004 ft 448 kts 131°
2026-04-23 09:14 39.80661 33.82851 22459 ft 451 kts 131°
2026-04-23 09:14 39.78888 33.86241 22920 ft 455 kts 130°
2026-04-23 09:14 39.77329 33.89881 23369 ft 467 kts 120°
2026-04-23 09:15 39.76146 33.93855 23788 ft 475 kts 115°
2026-04-23 09:15 39.75015 33.97902 24169 ft 478 kts 115°
2026-04-23 09:15 39.73872 34.01960 24557 ft 480 kts 115°
2026-04-23 09:15 39.72715 34.06042 24930 ft 482 kts 115°
2026-04-23 09:16 39.71545 34.10157 25308 ft 485 kts 115°
2026-04-23 09:16 39.70371 34.14273 25676 ft 487 kts 115°
2026-04-23 09:16 39.69189 34.18407 26050 ft 489 kts 116°
2026-04-23 09:16 39.68000 34.22557 26424 ft 492 kts 116°
2026-04-23 09:17 39.66806 34.26725 26793 ft 494 kts 116°
2026-04-23 09:17 39.65604 34.30920 27185 ft 497 kts 116°
2026-04-23 09:17 39.64396 34.35135 27536 ft 500 kts 115°
2026-04-23 09:17 39.63182 34.39367 27896 ft 502 kts 115°
2026-04-23 09:18 39.61973 34.43569 28268 ft 505 kts 115°
2026-04-23 09:18 39.60725 34.47900 28626 ft 508 kts 115°
2026-04-23 09:18 39.59503 34.52140 28973 ft 510 kts 115°
2026-04-23 09:18 39.58241 34.56518 29321 ft 513 kts 115°
2026-04-23 09:19 39.57005 34.60798 29704 ft 514 kts 115°
2026-04-23 09:19 39.55750 34.65134 30178 ft 513 kts 116°
2026-04-23 09:19 39.54476 34.69518 30645 ft 513 kts 116°
2026-04-23 09:19 39.53236 34.73777 31134 ft 512 kts 116°
2026-04-23 09:20 39.51981 34.78087 31591 ft 511 kts 116°
2026-04-23 09:20 39.50730 34.82381 32044 ft 510 kts 116°
2026-04-23 09:20 39.49474 34.86673 32471 ft 509 kts 116°
2026-04-23 09:20 39.48217 34.90962 32800 ft 509 kts 116°
2026-04-23 09:21 39.46960 34.95250 32872 ft 510 kts 116°
2026-04-23 09:21 39.44441 35.03827 32857 ft 510 kts 116°
2026-04-23 09:22 39.41909 35.12398 32839 ft 510 kts 116°
2026-04-23 09:22 39.39373 35.20957 32834 ft 510 kts 116°
2026-04-23 09:23 39.36877 35.29543 32828 ft 510 kts 115°
2026-04-23 09:23 39.34369 35.38254 32827 ft 524 kts 115°
2026-04-23 09:24 39.31811 35.47097 32820 ft 526 kts 115°
2026-04-23 09:24 39.29229 35.55937 32825 ft 526 kts 115°
2026-04-23 09:25 39.26640 35.64774 32837 ft 526 kts 115°
2026-04-23 09:25 39.24046 35.73601 32840 ft 526 kts 115°
2026-04-23 09:26 39.21439 35.82426 32832 ft 526 kts 116°
2026-04-23 09:26 39.18829 35.91236 32846 ft 526 kts 116°
2026-04-23 09:27 39.16211 36.00050 32868 ft 526 kts 114°
2026-04-23 09:27 39.14556 36.09303 32866 ft 533 kts 102°
2026-04-23 09:28 39.13389 36.18674 32867 ft 533 kts 102°
2026-04-23 09:28 39.12192 36.28102 32867 ft 533 kts 102°
2026-04-23 09:29 39.10980 36.37522 32862 ft 533 kts 102°
2026-04-23 09:29 39.09764 36.46951 32862 ft 533 kts 103°
2026-04-23 09:30 39.08545 36.56359 32849 ft 533 kts 103°
2026-04-23 09:30 39.07328 36.65702 32862 ft 532 kts 103°
2026-04-23 09:31 39.06091 36.75096 32870 ft 532 kts 103°
2026-04-23 09:31 39.04852 36.84473 32883 ft 532 kts 103°
2026-04-23 09:32 39.03601 36.93860 32860 ft 532 kts 103°
2026-04-23 09:32 39.02344 37.03240 32870 ft 532 kts 103°
2026-04-23 09:33 39.01084 37.12612 32883 ft 532 kts 103°
2026-04-23 09:33 38.99802 37.21987 32871 ft 532 kts 103°
2026-04-23 09:34 38.98514 37.31347 32886 ft 532 kts 103°
2026-04-23 09:34 38.97230 37.40719 32907 ft 532 kts 103°
2026-04-23 09:35 38.95952 37.50015 32902 ft 531 kts 103°
2026-04-23 09:35 38.94655 37.59356 32892 ft 531 kts 103°
2026-04-23 09:36 38.93348 37.68711 32913 ft 532 kts 103°
2026-04-23 09:36 38.92029 37.78067 32904 ft 532 kts 103°
2026-04-23 09:37 38.90701 37.87416 32884 ft 532 kts 103°
2026-04-23 09:37 38.89369 37.96749 32900 ft 531 kts 103°
2026-04-23 09:38 38.88035 38.06081 32892 ft 531 kts 103°
2026-04-23 09:38 38.86690 38.15390 32904 ft 531 kts 103°
2026-04-23 09:39 38.85337 38.24709 32902 ft 530 kts 103°
2026-04-23 09:39 38.83987 38.34003 32904 ft 530 kts 103°
2026-04-23 09:40 38.82634 38.43231 32909 ft 529 kts 103°
2026-04-23 09:40 38.81260 38.52513 32916 ft 529 kts 103°
2026-04-23 09:41 38.79884 38.61790 32916 ft 529 kts 103°
2026-04-23 09:41 38.78509 38.71047 32914 ft 529 kts 103°
2026-04-23 09:42 38.77121 38.80301 32901 ft 529 kts 103°
2026-04-23 09:42 38.75717 38.89544 32910 ft 528 kts 104°
2026-04-23 09:43 38.74325 38.98782 32926 ft 528 kts 103°
2026-04-23 09:43 38.72965 39.08032 32925 ft 528 kts 103°
2026-04-23 09:44 38.72232 39.13025 32923 ft 528 kts 103°
2026-04-23 09:44 38.70917 39.22224 32694 ft 518 kts 99°
2026-04-23 09:44 38.70629 39.26821 32327 ft 515 kts 95°
2026-04-23 09:45 38.70414 39.31395 31976 ft 514 kts 95°
2026-04-23 09:45 38.70199 39.35965 31609 ft 514 kts 95°
2026-04-23 09:45 38.69986 39.40526 31254 ft 514 kts 95°
2026-04-23 09:45 38.69775 39.45085 30905 ft 514 kts 95°
2026-04-23 09:46 38.69564 39.49660 30556 ft 514 kts 95°
2026-04-23 09:46 38.69350 39.54229 30214 ft 514 kts 95°
2026-04-23 09:46 38.69138 39.58796 29852 ft 514 kts 95°
2026-04-23 09:46 38.68932 39.63376 29451 ft 514 kts 95°
2026-04-23 09:47 38.68730 39.67947 29079 ft 514 kts 95°
2026-04-23 09:47 38.68529 39.72457 28718 ft 513 kts 95°
2026-04-23 09:47 38.68324 39.77013 28322 ft 510 kts 95°
2026-04-23 09:47 38.68116 39.81526 27914 ft 507 kts 95°
2026-04-23 09:48 38.67905 39.86023 27504 ft 504 kts 95°
2026-04-23 09:48 38.67695 39.90481 27096 ft 500 kts 95°
2026-04-23 09:48 38.67484 39.94910 26680 ft 497 kts 95°
2026-04-23 09:48 38.67272 39.99305 26288 ft 494 kts 95°
2026-04-23 09:49 38.67059 40.03679 25883 ft 491 kts 95°
2026-04-23 09:49 38.66845 40.08025 25490 ft 487 kts 95°
2026-04-23 09:49 38.66632 40.12336 25109 ft 484 kts 95°
2026-04-23 09:49 38.66420 40.16622 24723 ft 481 kts 95°
2026-04-23 09:50 38.66207 40.20887 24341 ft 478 kts 95°
2026-04-23 09:50 38.65994 40.25121 23966 ft 475 kts 95°
2026-04-23 09:50 38.65785 40.29329 23599 ft 473 kts 95°
2026-04-23 09:50 38.65580 40.33518 23170 ft 470 kts 95°
2026-04-23 09:51 38.65377 40.37686 22739 ft 468 kts 95°
2026-04-23 09:51 38.65175 40.41833 22318 ft 465 kts 95°
2026-04-23 09:51 38.64973 40.45936 21894 ft 462 kts 95°
2026-04-23 09:51 38.64768 40.50023 21476 ft 459 kts 95°
2026-04-23 09:52 38.64559 40.54088 21064 ft 456 kts 95°
2026-04-23 09:52 38.64349 40.58125 20655 ft 453 kts 95°
2026-04-23 09:52 38.64139 40.62128 20257 ft 450 kts 95°
2026-04-23 09:52 38.63928 40.66118 19865 ft 448 kts 95°
2026-04-23 09:53 38.63716 40.70072 19474 ft 445 kts 95°
2026-04-23 09:53 38.63504 40.74006 19093 ft 442 kts 95°
2026-04-23 09:53 38.63291 40.77930 18712 ft 440 kts 96°
2026-04-23 09:53 38.63083 40.81821 18345 ft 438 kts 95°
2026-04-23 09:54 38.62871 40.85705 17924 ft 436 kts 95°
2026-04-23 09:54 38.62651 40.89551 17497 ft 431 kts 95°
2026-04-23 09:54 38.62421 40.93353 17060 ft 427 kts 96°
2026-04-23 09:54 38.62190 40.97105 16846 ft 421 kts 96°
2026-04-23 09:55 38.61957 41.00845 16848 ft 421 kts 96°
2026-04-23 09:55 38.61726 41.04539 16857 ft 421 kts 96°
2026-04-23 09:55 38.61493 41.08273 16849 ft 421 kts 96°
2026-04-23 09:55 38.61261 41.12007 16848 ft 421 kts 96°
2026-04-23 09:56 38.61031 41.15740 16853 ft 422 kts 96°
2026-04-23 09:56 38.60800 41.19478 16848 ft 421 kts 96°
2026-04-23 09:56 38.60567 41.23215 16850 ft 421 kts 96°
2026-04-23 09:56 38.60330 41.26951 16848 ft 421 kts 96°
2026-04-23 09:57 38.60090 41.30677 16843 ft 421 kts 96°
2026-04-23 09:57 38.59909 41.34417 16838 ft 423 kts 91°
2026-04-23 09:57 38.60190 41.38161 16570 ft 422 kts 79°
2026-04-23 09:57 38.61024 41.41738 16247 ft 419 kts 67°
2026-04-23 09:58 38.62360 41.45032 15910 ft 415 kts 56°
2026-04-23 09:58 38.64072 41.47979 15582 ft 412 kts 50°
2026-04-23 09:58 38.65824 41.50867 15250 ft 410 kts 51°
2026-04-23 09:58 38.67563 41.53751 14915 ft 409 kts 51°
2026-04-23 09:59 38.69295 41.56632 14600 ft 408 kts 52°
2026-04-23 09:59 38.71013 41.59500 14286 ft 405 kts 52°
2026-04-23 09:59 38.72396 41.62613 13966 ft 400 kts 69°
2026-04-23 09:59 38.73074 41.66033 13642 ft 395 kts 85°
2026-04-23 10:00 38.73042 41.69484 13291 ft 380 kts 102°
2026-04-23 10:00 38.72367 41.72681 12953 ft 364 kts 116°
2026-04-23 10:00 38.71299 41.75477 12623 ft 344 kts 122°
2026-04-23 10:00 38.70246 41.78140 12292 ft 326 kts 122°
2026-04-23 10:01 38.69254 41.80653 12091 ft 307 kts 122°
2026-04-23 10:01 38.68318 41.83020 11890 ft 290 kts 122°
2026-04-23 10:01 38.67429 41.85261 11677 ft 274 kts 122°
2026-04-23 10:01 38.66587 41.87379 11492 ft 260 kts 123°
2026-04-23 10:02 38.65786 41.89389 11291 ft 247 kts 123°
2026-04-23 10:02 38.65012 41.91327 11099 ft 245 kts 123°
2026-04-23 10:02 38.64234 41.93268 10905 ft 245 kts 123°
2026-04-23 10:02 38.63459 41.95209 10706 ft 244 kts 123°
2026-04-23 10:03 38.62690 41.97142 10516 ft 242 kts 124°
2026-04-23 10:03 38.61888 41.98967 10359 ft 225 kts 137°
2026-04-23 10:03 38.60671 41.99956 10162 ft 200 kts 173°
2026-04-23 10:03 38.59347 41.99819 9970 ft 188 kts 206°
2026-04-23 10:04 38.58357 41.98763 9761 ft 188 kts 237°
2026-04-23 10:04 38.58005 41.97149 9549 ft 194 kts 267°
2026-04-23 10:04 38.58473 41.95503 9333 ft 207 kts 302°
2026-04-23 10:04 38.59633 41.94321 9139 ft 217 kts 319°
2026-04-23 10:05 38.60878 41.93268 8915 ft 217 kts 319°
2026-04-23 10:05 38.62134 41.92207 8726 ft 217 kts 319°
2026-04-23 10:05 38.63394 41.91140 8515 ft 217 kts 320°
2026-04-23 10:05 38.64647 41.90078 8311 ft 216 kts 320°
2026-04-23 10:06 38.65829 41.88933 8106 ft 207 kts 301°
2026-04-23 10:06 38.66532 41.87380 7926 ft 201 kts 289°
2026-04-23 10:06 38.67152 41.85783 7657 ft 200 kts 289°
2026-04-23 10:06 38.67768 41.84192 7365 ft 200 kts 289°
2026-04-23 10:07 38.68386 41.82604 7061 ft 199 kts 289°
2026-04-23 10:07 38.68999 41.81029 6779 ft 195 kts 289°
2026-04-23 10:07 38.69585 41.79527 6508 ft 182 kts 289°
2026-04-23 10:07 38.70130 41.78127 6249 ft 167 kts 288°
2026-04-23 10:08 38.70621 41.76866 5961 ft 151 kts 288°
2026-04-23 10:08 38.71071 41.75704 5703 ft 144 kts 288°
2026-04-23 10:08 38.71512 41.74562 5467 ft 142 kts 290°
2026-04-23 10:09 38.72385 41.72325 5023 ft 138 kts 292°
2026-04-23 10:09 38.72810 41.71227 4850 ft 138 kts 290°
2026-04-23 10:09 38.73230 41.70129 4642 ft 138 kts 290°
2026-04-23 10:09 38.73657 41.69023 4372 ft 139 kts 292°
2026-04-23 10:10 38.74091 41.67914 4201 ft 139 kts 292°
2026-04-23 10:10 38.74498 41.66847 4160 ft 116 kts 296°
2026-04-23 10:10 38.74790 41.66097 4165 ft 79 kts 296°
2026-04-23 10:10 38.75010 41.65529 4167 ft 64 kts 296°
2026-04-23 10:11 38.75193 41.65051 4167 ft 56 kts 296°
2026-04-23 10:11 38.75351 41.64643 4162 ft 47 kts 295°
2026-04-23 10:11 38.75459 41.64385 4162 ft 18 kts 323°
2026-04-23 10:11 38.75509 41.64391 4163 ft 6 kts 22°
2026-04-23 10:12 38.75551 41.64417 4164 ft 7 kts 26°
2026-04-23 10:12 38.75605 41.64452 4164 ft 10 kts 26°
2026-04-23 10:12 38.75675 41.64496 4165 ft 12 kts 26°
2026-04-23 10:12 38.75747 41.64540 4167 ft 11 kts 26°
2026-04-23 10:13 38.75818 41.64586 4167 ft 12 kts 26°
2026-04-23 10:13 38.75899 41.64624 4169 ft 10 kts 355°
2026-04-23 10:13 38.75943 41.64640 4170 ft 6 kts 26°
2026-04-23 10:13 38.75965 41.64653 4169 ft 1 kts 24°
2026-04-23 10:14 38.75969 41.64655 4169 ft 0 kts 24°
2026-04-23 10:14 38.75962 41.64650 4169 ft 0 kts 26°